Regional Weather Roundup
Issued by NWS

Home | Current Version | Previous Version | Text Only | Print | Product List | Glossary On
Versions: 1 2 3 4 5 6 7 8 9 10 11 12 13 14 15 16 17 18 19 20 21 22 23 24 25 26 27 28 29 30 31 32 33 34 35 36 37 38 39 40 41 42 43 44 45 46 47 48 49 50
000
ASHW40 PHFO 191843
RWRHI

WEATHER ROUNDUP FOR HAWAII
NATIONAL WEATHER SERVICE HONOLULU HI
800 AM HST FRI JAN 19 2018

THIS IS AN AUTOMATED REPORT THAT HAS NOT BEEN QUALITY CONTROLLED.

NOTE..."FAIR" INDICATES FEW OR NO CLOUDS BELOW 12,000 FEET WITH NO
SIGNIFICANT WEATHER AND/OR OBSTRUCTIONS TO VISIBILITY.

* - THESE SITES REPORT LIMITED FIELDS
# - BUOY DATA PROVIDED BY PACIFIC ISLANDS OCEAN OBSERVING SYSTEM.

HIZ001>004-191900-
KAUAI-NIIHAU-

CITY           SKY/WX    TMP DP  RH WIND       PRES   REMARKS
LIHUE APT      MOCLDY    73  70  90 E20       30.13R
PORT ALLEN*      N/A     72 N/A N/A E17G24      N/A
POIPU*           N/A     73 N/A N/A E10G20      N/A
PRINCEVILLE*     N/A     70 N/A N/A SE10G23     N/A
KOKOLE POINT*  NOT AVBL
MOLOAA DAIRY*    N/A     72  68  88 E12G25      N/A
WAIMEA HTS*      N/A     75  66  73 E12G20      N/A
PUU OPAE*        N/A     68  61  77 SE3G12      N/A
PUU LUA*       NOT AVBL
MAKAHA RIDGE*    N/A    N/A N/A N/A CALM        N/A
$$

HIZ005>011-191900-
OAHU-

CITY           SKY/WX    TMP DP  RH WIND       PRES   REMARKS
HONOLULU       MOCLDY    76  66  71 E14       30.10R
KALAELOA       MOCLDY    74  66  76 NE9       30.11R
KANEOHE MCB    CLOUDY    74  68  81 E12G30    30.10S
WHEELER FIELD  CLOUDY    70  65  84 SE7       30.14R
BELLOWS*         N/A    N/A N/A N/A NE24G31     N/A
KAHUKU*          N/A    N/A N/A N/A NE14G25     N/A
WHEELER*         N/A    N/A N/A N/A SE9G18      N/A
WAIANAE HARBOR   N/A    N/A N/A N/A E8G17       N/A
DILLINGHAM*    NOT AVBL
KAHUKU TRN*      N/A     70  68  94 W14G31      N/A
KAWAILOA*        N/A     66  64  94 E20G36      N/A
KII*             N/A     73  68  83 E22G33      N/A
MAKUA RANGE*     N/A     77  63  61 W12G20      N/A
OAHU FOREST NW   N/A     66  63  88 E33G59      N/A
SCHOFIELD BRK*   N/A     70  64  83 MISG        N/A
SCHOFIELD S*   NOT AVBL
WAIANAE VLY*     N/A     73  64  73 N9G38       N/A
KUAOKALA*        N/A     72  64  78 E13G18      N/A
HONOULIUULI*   NOT AVBL
MOKUOLOE IS*   NOT AVBL
PALEHUA*         N/A    N/A N/A N/A NE14G28     N/A
WAIAWA PHB*    NOT AVBL
$$

HIZ012>013-191900-
MOLOKAI-

CITY           SKY/WX    TMP DP  RH WIND       PRES   REMARKS
MOLOKAI AIRPT  MOSUNNY   68  32  26 NE24      30.08R
KALAUPAPA      NOT AVBL
MAKAPULAPAI*     N/A     72  68  88 E28G43      N/A
MOLOKAI 1*       N/A     70  63  78 W3G24       N/A
PUU ALII*        N/A     54  54 100 NE5G18      N/A
$$

HIZ016-191900-
KAHOOLAWE-

CITY           SKY/WX    TMP DP  RH WIND       PRES   REMARKS
KAHOOLAWE*     NOT AVBL
HAKIOAWA*        N/A     70  65  84 MISG      30.48R
HONOKANAIA*    NOT AVBL
KANELOA*         N/A     68  64  88 E29G49    30.11S
KEALIALALO*    NOT AVBL
LUA MAKIKA*    NOT AVBL
$$

HIZ014>015-191900-
LANAI-

CITY           SKY/WX    TMP DP  RH WIND       PRES   REMARKS
LANAI CITY     FAIR      68  64  87 NE7       30.13R
LANAI 1*         N/A     70  64  83 E12         N/A
$$

HIZ017>028-191900-
MAUI-

CITY           SKY/WX    TMP DP  RH WIND       PRES   REMARKS
KAHULUI        MOSUNNY   67  62  84 S5        30.07R
KAPALUA-W MAUI MOSUNNY   72  66  83 E12G23    30.08R
HANA AIRPORT   LGT RAIN  70  32  24 SE7G22    30.18R
HANA*            N/A     72 N/A N/A SE8G17      N/A
HALEAKALA SUMM   N/A     39  37  93 E26         N/A  WCI  28
MAALAEA BAY*     N/A     73 N/A N/A N8G16       N/A
HALEAKALA*     NOT AVBL
KAUPO GAP*     NOT AVBL
KULA 1*          N/A    N/A N/A N/A N5G20       N/A
$$

HIZ023>026-191900-
BIG ISLAND OF HAWAII COAST AND LOWER SLOPES-

CITY           SKY/WX    TMP DP  RH WIND       PRES   REMARKS
KAILUA KONA    SUNNY     71  59  65 E6        30.05R
HILO           CLOUDY    70  67  90 S3        30.16R
HONOKAA*         N/A     72 N/A N/A VRB1        N/A
KAWAIHAE MWT*    N/A     72 N/A N/A E6          N/A
KAWAIHAE*        N/A     73 N/A N/A NE3       30.08R
SOUTH POINT*     N/A     70 N/A N/A N24G37      N/A
UPOLU AIRPORT* NOT AVBL
KAMUELA*       CLEAR     64  59  82 NE24      30.16R
HAKALAU*         N/A     50  49  96 S5G13       N/A
KALOKO-HONOKO*   N/A     75  59  57 E3        30.05R
PALI 2*          N/A     63  59  88 SW13G23     N/A
KEALAKOMO*       N/A     73  64  73 N12G18      N/A
KAUPULEHU*       N/A     73  59  60 E3G10       N/A
KAPAPALA*        N/A     70  59  69 NE8G18      N/A
LOWER KAHUKU*    N/A     61  57  88 N5G18       N/A
PUHE CS*         N/A     70  54  56 E3G10       N/A
PUHO CS*         N/A     67  49  53 E3G9        N/A
PTA KEAMUKU*     N/A     55  52  88 SE6         N/A
WAIKOLOA*        N/A     72  59  64 SE6         N/A
$$

HIZ027>028-191900-
BIG ISLAND OF HAWAII INTERIOR AND SUMMMITS-

CITY           SKY/WX    TMP DP  RH WIND       PRES   REMARKS
BRADSHAW FIELD MOSUNNY   58  34  39 S20G29    30.33F
MK VISITOR CEN   N/A     50   9  18 E15         N/A
MAUNA KEA*       N/A     36   0  21 NE13        N/A  WCI  27
MAUNA LOA*       N/A     41  -2  16 MISG        N/A
MAUNA LOA 1*   NOT AVBL
PTA KIPUKA*      N/A    N/A N/A N/A NW7G14      N/A
PTA RANGE 17*    N/A     54  46  76 NW26G37     N/A
PTA WEST*        N/A     61  46  59 SE30G44     N/A
NENE CABIN*      N/A    N/A N/A N/A NE12G26     N/A
AHUMOA*          N/A     59  34  39 NE5         N/A
PTA PORTABLE*  NOT AVBL
PUU MALI*        N/A    N/A N/A N/A S5G10       N/A
$$

HIC003-191900-
NORTHWEST ISLANDS-

CITY           SKY/WX    TMP DP  RH WIND       PRES   REMARKS
MIDWAY ISLAND  LGT RAIN  66  63  88 E9        30.02R
MIDWAY NOS*      N/A     70 N/A N/A MISG      29.99S
FRENCH FRIGATE NOT AVBL
$$

PHZ110>124-180-191900-
BUOY REPORTS

STATION/POSITION TIME  TEMP    WIND        PRES    WAVE   SWELL
                       AIR SEA DIR/SP/G            HT/PER HT/DIR
                 (UTC) (F)     (DEG/KT/KT) (MB)    (FT/S) (FT/D)
BUOY 51001       1820   75 76  110/ 14/ 17 1017.3
BUOY 51101       1750   73 74  120/ 19/ 23 1020.3S  11/10   8/ 90
BUOY 51100       NOT AVBL
BUOY 51002       1820   77 77   70/ 25/ 33 1015.9
BUOY 51003       1750   75 77   80/ 21/ 25 1016.9R  11/10   8/ 90
BUOY 51004       1820   76 77   70/ 23/ 31 1017.7
WAIMEA BAY#      1802      74                N/A     8/10   3/ 10
MOKAPU POINT#    1804      76                N/A    13/ 9   5/ 40
LANAI#           NOT AVBL
BARBERS PT 2#    NOT AVBL
PAUWELA#         1830      76                N/A    13/10   7/ 50
HILO#            1827      75                N/A    12/10   5/ 20
KANEOHE BAY#     NOT AVBL
KANEOHE BAY 2#   NOT AVBL
HANALEI#         1822      75                N/A    12/ 9   5/ 70
KAHULUI HARBOR   1812   70 74  130/  2/  7 1018.6
HONOLULU HARBOR  1812   73 75   60/  7/ 15 1018.9
PEARL HARBOR#    1800      76                N/A     4/10   2/150
KILO NALU        NOT AVBL
HILO HARBOR      1812   69 75  220/  7/  8 1021.1
MOKUOLOE         1736   73 75  100/ 16/ 20 1020.0S
NAWILIWILI       1812   74 78   80/ 18/ 24 1020.1
WHOTS BUOY       NOT AVBL
BUOY 51028       NOT AVBL
$$

......................KEY........................................
  SKY/WX - SKY CONDITIONS/PRESENT WEATHER
  TMP    - TEMPERATURE IN FAHRENHEIT
  DWPT   - DEWPOINT IN FAHRENHEIT
  RH     - RELATIVE HUMIDITY IN PERCENT
  WIND   - DIRECTION AND SPEED /MPH FOR ISLANDS...KTS FOR BUOYS/
  PRES   - MEAN SEA LEVEL PRESSURE IN INCHES OF HG
  VSB    - VISIBILITY IN MILES
  HX     - HEAT INDEX
  WCI    - WIND CHILL INDEX
  VRB    - VARIABLE WIND DIRECTION
  N/A    - NOT AVAILABLE




USA.gov is the U.S. government's official web portal to all federal, state and local government web resources and services.